sat.trackr.live / text

‹ back to catalog

STARLINK-35344

NORAD 65656 · 2025-211E

PAYLOAD ACTIVE UNKNOWN

§ Identity

Operator
Country
US
Launch date
2025-09-19
Launch site
AFWTR
Launch vehicle
Mass (kg)
RCS (m²)

Purposes: comms

External: N2YO · Heavens-Above · Gunter

§ Orbital elements

Epoch: 2026-09-18T21:52:36.759648Z

Period
93.91 min
Inclination
97.2833°
Eccentricity
0.0001554
Mean motion
15.33444280 rev/d
Perigee alt
464.5 km
Apogee alt
466.6 km
Semi-major
6,843.7 km
B*
2.8074e-4
RAAN
302.2165°
Arg perigee
96.8885°
Mean anomaly
263.2534°
Rev number
5,628

§ Raw data

STARLINK-353441 65656U 25211E   26261.91153657  .00008999  00000+0  28074-3 0  99912 65656  97.2833 302.2165 0001554  96.8885 263.2534 15.33444280 56280

JSON: /api/v1/satellites/65656 · /tle

For live sub-satellite position, see the globe view (requires WebGL).

§ Visibility from observer

Set your observer location to see the next 7 days of passes ≥ 10°. The values pass through the URL so the page stays shareable.

No JS? Fill the form by hand. The geolocation button needs JavaScript.